Regional Weather Roundup
Issued by NWS

Home | Current Version | Previous Version | Graphics & Text | Print | Product List | Glossary On
Versions: 1 2 3 4 5 6 7 8 9 10 11 12 13 14 15 16 17 18 19 20 21 22 23 24 25 26 27 28 29 30 31 32 33 34 35 36 37 38 39 40 41 42 43 44 45 46 47 48 49 50
363
ASUS45 KSLC 212210
RWRUT

UTAH REGIONAL WEATHER ROUNDUP
NATIONAL WEATHER SERVICE SALT LAKE CITY UT
300 PM MST SAT JAN 21 2017

UTZ001>011-023>025-212300-

NORTHERN UTAH

CITY           SKY/WX    TMP DP  RH WIND       PRES   REMARKS
BRIGHAM CITY     N/A     34  32  93 S6        29.66R WCI  29
HILL AFB       CLOUDY    32  27  80 SW6       29.66R FOG     WCI  26
LOGAN          CLOUDY    34  31  88 E3        29.64R
OGDEN          CLOUDY    32  28  85 SW7       29.66R WCI  26
SALT LAKE CITY CLOUDY    35  30  82 CALM      29.68R
TOOELE VALLEY  CLOUDY    37  30  75 E5        29.68R WCI  34
WENDOVER       MOSUNNY   39  21  48 W12       29.67R WCI  32
HEBER CITY     CLOUDY    32  27  80 CALM      29.60R
WEST JORDAN    CLOUDY    33  33 100 E3        29.68R

$$

UTZ011>015-024>027-212300-

CENTRAL/NORTHEAST UTAH

CITY           SKY/WX    TMP DP  RH WIND       PRES   REMARKS
PROVO AIRPORT  LGT RAIN  34  31  88 NW8       29.69R WCI  27
MOAB/CANYONLAN SUNNY     40  37  89 NW10      29.51R WCI  33
DELTA          CLOUDY    34  32  93 S6        29.70R WCI  29
PRICE          MOSUNNY   36  22  56 NW13      29.52R WCI  27
RICHFIELD      PTSUNNY   36  23  60 NW7       29.72R WCI  30
ROOSEVELT      CLOUDY    32  23  69 SE7       29.54R WCI  26
VERNAL         CLOUDY    26  21  81 E3        29.53R

$$

UTZ013>016-019>022-027-212300-

SOUTHERN UTAH

CITY           SKY/WX    TMP DP  RH WIND       PRES   REMARKS
BRYCE CANYON   CLOUDY    27  16  63 NW16G28   29.65R WCI  15
CEDAR CITY     PTSUNNY   35  24  64 W13       29.71R WCI  26
MILFORD        PTSUNNY   39  24  55 S3        29.68R
ST GEORGE      MOCLDY    48  30  49 W12       29.78R
HANKSVILLE     MOSUNNY   45  21  39 MISG      29.57R
KANAB          MOSUNNY   39  28  65 W13G20    29.77R WCI  32
BLANDING       PTSUNNY   35  30  83 SW9       29.61R WCI  27

$$

REGIONAL REPORTS     COLORADO/ARIZONA

CITY           SKY/WX    TMP DP  RH WIND       PRES   REMARKS
CRAIG, CO      LGT SNOW  28  24  85 SW7       29.48R VSB 3/4 WCI  21
GRAND JUNCTION MIX PCPN  35  35 100 N10       29.50R WCI  27
RIFLE, CO      LGT SNOW  34  30  85 W5        29.46R FOG     WCI  30
MONTROSE, CO   CLOUDY    32  31  96 SE8       29.50R WCI  25
CORTEZ, CO     CLOUDY    34  30  85 SW7       29.55R WCI  28
COLORADO CITY  MOCLDY    39  32  75 W10       29.78R WCI  32
PAGE, AZ       CLOUDY    45  20  36 W10G18    29.65R
GRAND CANYON   PTSUNNY   31  25  78 W13G23    29.74R WCI  21
KINGMAN, AZ    SUNNY     49  27  42 SW21      29.82R
FLAGSTAFF, AZ  CLOUDY    30  21  69 W17       29.74R WCI  18

$$

REGIONAL REPORTS    NEVADA/IDAHO/WYOMING

CITY           SKY/WX    TMP DP  RH WIND       PRES   REMARKS
LAS VEGAS, NV  MOSUNNY   57  27  31 NW5       29.77R
ELY, NY        CLOUDY    33  16  49 W6        29.71R WCI  28
ELKO, NV       CLOUDY    34  24  67 W15       29.69R WCI  24
POCATELLO, ID  CLOUDY    32  28  85 SW12      29.62R WCI  23
BURLEY, ID     PTSUNNY   37  28  70 W7        29.62R WCI  32
FORT BRIDGER,  LGT SNOW  26  26 100 W21       29.56R WCI  11
EVANSTON, WY   CLOUDY    24  19  81 W15       29.56R WCI  11
ROCK SPRINGS,  LGT SNOW  21  17  84 SW12      29.51R FOG     WCI   9

$$




USA.gov is the U.S. government's official web portal to all federal, state and local government web resources and services.